Zurück zum Katalog

NIMBUS 2 DEB

AktivLEO
NORAD 28203·DEBRIS·🇺🇸 United States

Gestartet May 15, 1966 von Vandenberg Space Force Base

Loading…

Nächste Überflüge (nächste 24 Stunden)

TLE

AktuellSource: Space-Track

Epoche: Sep 14, 2026, 15:41 UTC

1 28203U 66040R   26257.65357071  .00001511  00000-0  23860-2 0  9996
2 28203 100.3269 150.4383 0050710  61.3276 327.7182 13.51191672196934

Verfolge NIMBUS 2 DEB in Echtzeit mit AllMySat

Download on the App Store